Tracking 25710 objects as of 5-Jul-2022
HD Live streaming from Space Station
objects crossing your sky now

OPS 1570

Track OPS 1570 now!
OPS 1570 is classified as:


NORAD ID: 5851
Int'l Code: 1972-010A
Perigee: 35,915.9 km
Apogee: 35,951.4 km
Inclination: 3.3 °
Period: 1,443.3 minutes
Semi major axis: 42304 km
RCS: Unknown
Launch date: March 1, 1972
Source: United States (US)
Launch site: AIR FORCE EASTERN TEST RANGE (AFETR)
aabbcc
Your satellite tracking list
Your tracking list is empty




NASA's NSSDC Master Catalog

Two Line Element Set (TLE):
1  5851U 72010A   22186.58593039  .00000134  00000-0  00000+0 0  9997
2  5851   3.3451 282.3687 0004197 320.2355 112.9342  0.99774691 11527
Source of the keplerian elements: McCants